Location: �pieds
(47.1435°N, 0.0457°W)
Time: 09:04:38
(UTC+00:00)

Daily predictions for brighter satellites

Satellite Brightness Start Highest point End
(mag) Time Altitude Azimuth Time Altitude Azimuth Time Altitude Azimuth
ERS-1 Rocket 4.4 20:20:45 10° ESE 20:24:47 25° ENE 20:28:50 10° N
STARLINK-1101 4.3 20:21:34 10° WNW 20:25:37 51° NNE 20:29:40 10° E
STARLINK-1094 3.9 20:24:18 10° WNW 20:28:24 61° SW 20:32:29 10° SE
Sich 1 Rocket 4.1 20:24:36 10° NNW 20:29:10 67° W 20:33:42 10° S
STARLINK-1102 4.3 20:26:32 10° WNW 20:30:38 53° NNE 20:34:42 10° E
USA 245 3.7 20:28:20 10° SE 20:30:52 26° ENE 20:33:05 10° NNE
STARLINK-1269 3.6 20:27:13 10° WSW 20:31:22 89° NNW 20:35:32 10° ENE
Cosmos 2278 Rocket 2.6 20:27:07 10° SSW 20:32:47 73° WNW 20:38:30 10° NNE
STARLINK-1117 4.0 20:29:17 10° WNW 20:33:22 57° SW 20:37:25 10° SE
GPS 2-04 Rocket1 4.5 20:32:06 10° SSW 20:33:49 13° S 20:35:33 10° SSE
Okean 1 Rocket 4.2 20:29:52 10° N 20:33:49 30° ENE 20:37:43 10° SE
Cosmos 1741 Rocket 4.1 20:29:04 10° NNW 20:34:17 66° ENE 20:39:28 10° SSE
Resurs 01 Rocket 1.7 20:29:55 10° SSE 20:34:22 83° WSW 20:38:52 10° NNW
Okean 2 Rocket 3.1 20:30:15 10° N 20:34:42 89° E 20:39:05 10° S
STARLINK-1111 4.2 20:31:31 10° WNW 20:35:37 56° NNE 20:39:41 10° E
STARLINK-1200 3.7 20:32:11 10° WSW 20:36:20 84° NNW 20:40:30 10° ENE
Meteor 1-12 Rocket 4.3 20:32:17 10° N 20:37:58 89° ENE 20:43:42 10° S
MetOp-B 4.2 20:32:59 10° SSE 20:38:17 70° ENE 20:43:38 10° N
STARLINK-1078 4.1 20:34:17 10° WNW 20:38:20 52° SW 20:42:21 10° SE
SL-8 R/B 3.8 20:35:43 10° WNW 20:40:32 87° NNE 20:45:23 10° ESE
STARLINK-1073 4.1 20:36:31 10° WNW 20:40:37 59° NNE 20:44:42 10° ESE
STARLINK-1192 3.8 20:37:11 10° WSW 20:41:20 80° NNW 20:45:29 10° ENE
Cosmos 2279 Rocket 4.0 20:36:27 10° N 20:42:43 82° E 20:48:55 10° S
STARLINK-1108 4.2 20:39:17 10° WNW 20:43:18 48° SW 20:47:08 11° SE
Cosmos 1850 Rocket 4.1 20:38:29 10° NNW 20:43:52 82° ENE 20:49:13 10° SSE
ATLAS 3B CENTAUR R/B 4.5 20:33:14 10° SW 20:44:34 24° S 20:50:57 10° SE
Cosmos 371 Rocket 3.3 20:39:58 10° SSW 20:44:50 90° E 20:49:45 10° NNE
STARLINK-1121 4.0 20:41:29 10° WNW 20:45:37 62° NNE 20:49:42 10° ESE
SL-4 R/B 4.0 20:43:39 10° SSE 20:46:05 14° SE 20:48:33 10° E
STARLINK-1244 3.9 20:42:09 10° WSW 20:46:18 75° NNW 20:50:28 10° ENE
STARLINK-1071 4.3 20:44:17 10° WNW 20:48:15 45° SW 20:51:55 12° SSE
Terra 3.3 20:44:39 10° ESE 20:48:26 24° ENE 20:52:13 10° N
Abrixas rocket 1.9 20:46:11 10° WNW 20:49:08 73° SSW 20:51:50 12° ESE
Spot 2 Rocket 3.5 20:44:25 10° SSE 20:49:25 70° ENE 20:54:28 10° N
Cosmos 2151 Rocket 3.6 20:44:53 10° N 20:49:27 88° E 20:53:59 10° S
SPOT 1/Viking Rocket 3.9 20:45:20 10° SE 20:50:20 53° ENE 20:55:21 10° N
STARLINK-1106 3.9 20:46:29 10° WNW 20:50:37 65° NNE 20:54:44 10° ESE
ERBS 4.4 20:47:41 10° W 20:50:40 30° NNW 20:53:40 10° NE
STARLINK-1138 3.9 20:47:09 10° WSW 20:51:17 71° NNW 20:55:27 10° ENE
STARLINK-1110 4.3 20:48:05 10° WNW 20:52:01 42° SW 20:55:32 12° SSE
STARLINK-1112 3.9 20:51:26 10° WNW 20:55:34 69° NNE 20:59:41 10° ESE
STARLINK-1143 4.0 20:52:08 10° WSW 20:56:16 67° NNW 21:00:24 10° ENE
STARLINK-1124 4.5 20:54:19 10° WNW 20:58:10 38° SW 21:01:29 13° SSE
Aureole 2 4.4 20:55:18 10° NNW 20:58:24 53° ENE 21:00:36 16° SE
STARLINK-1128 3.8 20:56:24 10° WNW 21:00:33 73° NNE 21:04:28 11° ESE
STARLINK-1241 4.1 20:57:10 10° WSW 21:01:17 64° NNW 21:05:25 10° ENE
Cosmos 1331 Rocket 4.3 20:58:57 10° S 21:03:50 46° ESE 21:08:47 10° NNE
deb Kosmos-1763 4.0 21:00:32 10° NNW 21:04:08 75° ENE 21:06:57 16° SSE
Cosmos 1300 Rocket 4.3 20:59:53 10° NNW 21:04:13 52° W 21:08:31 10° S
Aureole 2 Rocket 2.0 21:01:32 10° SSW 21:04:37 68° ESE 21:07:35 10° NNE
STARLINK-1113 3.7 21:01:23 10° WNW 21:05:33 77° NNE 21:09:15 13° ESE
STARLINK-1239 4.2 21:02:10 10° WSW 21:06:16 60° NNW 21:10:23 10° ENE
Cosmos 1437 Rocket 2.8 21:05:52 10° SSW 21:09:39 79° W 21:13:30 10° N
STARLINK-1119 3.7 21:06:24 10° WNW 21:10:33 82° NNE 21:14:04 14° ESE
STARLINK-1240 4.3 21:07:09 10° WSW 21:11:15 58° NNW 21:15:21 10° ENE
Cosmos 1378 3.8 21:09:41 16° SSE 21:12:16 37° E 21:15:44 10° NNE
ISS -1.8 21:12:42 10° W 21:15:09 19° SW 21:17:02 13° S
STARLINK-1114 3.6 21:11:21 10° WNW 21:15:31 86° NNE 21:18:49 16° ESE
STARLINK-1203 4.4 21:12:00 10° W 21:16:08 55° NNW 21:20:16 10° ENE
STARLINK-1216 4.4 21:12:09 10° W 21:16:14 55° NNW 21:20:19 10° ENE
Cosmos 304 Rocket 3.7 21:11:27 10° SSW 21:16:14 86° ESE 21:21:04 10° NNE
Meteor 1-15 Rocket 4.4 21:10:32 10° NNW 21:16:31 90° W 21:21:57 12° S
Lacrosse 5 3.3 21:13:57 10° WNW 21:18:12 27° SW 21:22:07 11° S
STARLINK-1130 (DARKSAT) 3.6 21:16:20 10° WNW 21:20:30 88° SW 21:23:37 17° ESE
Cosmos 1092 Rocket 4.4 21:15:30 14° SSE 21:20:32 46° E 21:26:22 10° NNE
NOSS 2-2 (D) 3.2 21:17:24 10° SSW 21:20:53 56° SE 21:24:44 10° NE
CENTAUR R/B 3.8 21:15:08 10° NW 21:22:45 51° NE 21:31:08 10° ESE
Cosmos 1674 Rocket 3.9 21:20:29 10° SSW 21:24:49 68° W 21:29:15 10° N
STARLINK-1084 3.6 21:21:19 10° WNW 21:25:29 83° SSW 21:28:24 19° SE
ATLAS 3B R/B 4.2 21:19:49 10° NNW 21:25:39 30° NNE 21:31:38 10° E
SL-27 R/B 3.8 21:24:20 10° N 21:27:31 29° ENE 21:29:28 18° ESE
Cosmos 1378 Rocket 3.6 21:23:17 10° S 21:27:42 83° W 21:32:06 10° N
NOSS 3-2 (C) 4.5 21:20:53 10° NW 21:28:07 56° NE 21:35:37 13° ESE
Cosmos 1766 3.5 21:26:25 10° N 21:30:22 58° ENE 21:32:47 22° SSE
STARLINK-1098 3.6 21:26:18 10° WNW 21:30:28 78° SSW 21:33:11 21° SE
STARLINK-1123 3.6 21:31:16 10° WNW 21:35:24 73° SW 21:37:57 22° SE
IGS 5A 4.2 21:31:57 12° S 21:35:34 47° W 21:39:36 10° NNW
Cosmos 1943 Rocket 2.3 21:31:46 10° S 21:37:03 53° ESE 21:42:29 10° NE
Cosmos 2297 3.9 21:31:29 10° SSW 21:37:10 76° WNW 21:42:56 10° NNE
Cosmos 1900 4.4 21:32:35 10° NW 21:37:39 87° ENE 21:41:01 22° SE
NOSS 2-2 (E) 3.3 21:34:35 10° SW 21:38:09 79° NW 21:42:16 10° NE
STARLINK-1097 3.6 21:36:17 10° WNW 21:40:24 68° SW 21:42:45 24° SE
Cosmos 2082 Rocket 3.8 21:37:54 10° NW 21:42:41 28° WSW 21:47:25 10° SSW
SeaSat 1 4.0 21:40:40 10° ENE 21:43:50 17° ESE 21:44:34 16° ESE
Cosmos 1461 4.2 21:41:20 10° WSW 21:45:21 45° NW 21:49:36 10° NNE
STARLINK-1099 3.7 21:41:16 10° WNW 21:45:22 63° SW 21:47:32 26° SE
Cosmos 1975 Rocket 3.2 21:44:36 23° SSE 21:47:13 56° E 21:51:33 10° NNE
STARLINK-1212 4.4 21:45:04 10° NW 21:47:57 34° NNE 21:50:47 10° E
STARLINK-1105 4.4 21:45:33 10° NW 21:48:26 34° NNE 21:51:13 11° E
STARLINK-1247 4.4 21:46:25 10° NW 21:49:19 34° NNE 21:52:06 11° E
STARLINK-1227 4.4 21:46:55 10° NW 21:49:48 34° NNE 21:52:32 11° E
BREEZE-M DEB (TANK) 3.9 21:31:41 10° WSW 21:50:00 79° SSE 21:54:20 10° ENE
STARLINK-1104 3.8 21:46:15 10° WNW 21:50:20 58° SW 21:52:18 28° SSE
Cosmos 292 Rocket 4.4 21:48:20 24° SSE 21:50:33 37° ESE 21:55:01 10° NE
STARLINK-1226 4.4 21:47:46 10° NW 21:50:41 34° NNE 21:53:24 11° E
BREEZE-M DEB (TANK) 3.4 21:46:42 10° W 21:51:09 63° N 21:54:41 10° E
STARLINK-1215 4.4 21:48:40 10° NW 21:51:35 35° NNE 21:54:16 11° E
Cosmos 2369 Rocket 2.4 21:49:04 17° S 21:53:13 51° ESE 21:58:42 10° NE
STARLINK-1217 4.3 21:50:29 10° NW 21:53:24 35° NNE 21:56:01 12° E
STARLINK-1229 4.3 21:51:23 10° NW 21:54:19 35° NNE 21:56:53 12° E
STARLINK-1270 4.3 21:52:16 10° NW 21:55:13 36° NNE 21:57:46 13° E
STARLINK-1144 3.9 21:51:15 10° WNW 21:55:18 54° SW 21:57:05 30° SSE
STARLINK-1189 4.3 21:54:05 10° NW 21:57:01 36° NNE 21:59:29 13° E
SPOT 5 3.3 21:53:31 19° S 21:57:16 66° WSW 22:02:37 10° NNW
STARLINK-1188 4.3 21:55:00 10° NW 21:57:56 37° NNE 22:00:22 13° E
ATLAS CENTAUR R/B 3.2 21:59:35 17° ESE 21:59:35 17° ESE 22:01:52 10° ENE
STARLINK-1187 4.1 21:56:05 10° NW 21:59:02 39° NNE 22:01:14 16° E
STARLINK-1103 3.9 21:56:14 10° WNW 22:00:15 50° SW 22:01:51 31° SSE
STARLINK-1191 4.2 21:57:26 10° NW 22:00:22 37° NNE 22:02:39 15° E
STARLINK-1221 4.2 21:58:23 10° NW 22:01:20 37° NNE 22:03:34 15° E
STARLINK-1222 4.2 21:59:14 10° NW 22:02:10 38° NNE 22:04:23 15° E
NOSS 2-2 (C) 3.8 21:59:17 10° SW 22:02:48 57° NW 22:06:50 10° NE
STARLINK-1214 4.2 22:00:07 10° NW 22:03:04 38° NNE 22:05:15 16° E
ERS-1 Rocket 3.6 21:59:40 17° S 22:03:17 50° W 22:08:12 10° NNW
EXPRESS MD2 3.9 22:00:28 10° WSW 22:04:02 81° NNW 22:11:20 10° ENE
Cosmos 1025 Rocket 4.1 22:02:58 25° ESE 22:04:13 29° E 22:07:55 10° NNE
Okean 2 3.4 22:02:00 23° S 22:04:34 85° W 22:08:45 10° N
Cosmos 2026 Rocket 4.0 22:00:23 20° S 22:04:54 74° E 22:11:16 10° NNE
Thor Agena Rocket 4.4 22:00:17 10° NNE 22:05:07 35° E 22:07:12 26° SE
STARLINK-1101 4.0 22:01:14 10° WNW 22:05:13 46° SW 22:06:38 32° SSE
Meteor 1-22 Rocket 4.4 21:59:27 10° NNW 22:05:23 76° W 22:09:05 23° S
ATLAS 2AS CENTAUR R/B 3.4 22:00:30 17° S 22:06:23 45° ESE 22:13:49 10° NE
BREEZE M DEB (TANK) 2.2 22:02:32 10° WSW 22:06:41 75° NNW 22:08:33 13° ENE
Cosmos 1656 Rocket 4.4 22:04:50 25° SE 22:06:59 34° ESE 22:11:57 10° NE
Cosmos 1553 Rocket 4.3 22:01:59 10° N 22:08:10 55° ENE 22:11:43 25° SE
BREEZE-M DEB (TANK) 4.4 21:52:04 10° WNW 22:08:30 89° SSW 22:11:56 18° ESE
STARLINK-1228 3.8 22:05:32 10° WNW 22:08:58 52° NNE 22:11:08 20° E
Cosmos 1953 3.9 22:06:03 10° NNE 22:09:18 23° ENE 22:10:41 19° ESE
NOSS 3-2 (A) 4.1 22:02:06 10° NW 22:09:36 75° SW 22:15:10 24° SSE
Cosmos 1805 4.2 22:06:26 10° NNW 22:10:09 41° W 22:12:24 21° SSW
STARLINK-1102 4.2 22:06:15 10° WNW 22:10:11 43° SW 22:11:26 33° S
Cosmos 1470 3.1 22:06:46 10° N 22:10:34 50° ENE 22:11:51 34° SE
APEX 4.4 22:06:47 19° S 22:11:19 55° ESE 22:16:36 10° NE
STARLINK-1235 3.7 22:08:16 10° NW 22:11:26 49° NNE 22:13:12 23° E
Cosmos 968 Rocket 3.6 22:09:46 10° NNW 22:14:55 66° ENE 22:17:31 29° SE
STARLINK-1111 4.3 22:11:15 10° WNW 22:15:07 39° SW 22:16:12 33° S
Cosmos 1455 Rocket 3.0 22:13:07 10° N 22:17:29 83° W 22:19:25 33° S
STARLINK-1073 4.4 22:16:16 10° WNW 22:20:05 36° SW 22:20:59 32° SSW
ATLAS 5 CENTAUR R/B 2.6 22:15:31 10° SSW 22:21:46 31° ESE 22:23:38 10° ENE
USA 238 DEB 4.0 22:14:18 10° NW 22:21:27 64° WSW 22:25:51 26° SSE
USA 238 4.0 22:14:24 10° NW 22:21:33 65° WSW 22:25:58 26° SSE
SL-8 R/B 4.3 22:18:23 10° W 22:22:52 40° SSW 22:24:14 33° S
Cosmos 1758 3.5 22:20:02 10° N 22:24:05 63° E 22:25:25 39° SE
Abrixas rocket 4.2 22:22:15 10° W 22:23:18 15° WSW 22:23:18 15° WSW
STARLINK-1121 4.5 22:21:17 10° WNW 22:25:01 34° SW 22:25:46 31° SSW
SL-4 R/B 2.4 22:20:21 10° SW 22:25:02 58° SSE 22:29:49 10° ENE
Terra 2.5 22:23:15 23° SSW 22:25:54 47° W 22:30:31 10° NNW
Cosmos 1842 3.6 22:24:08 27° SSW 22:26:07 63° WNW 22:29:59 10° N
Meteor 2-13 Rocket 4.4 22:23:31 22° S 22:27:43 87° W 22:33:56 10° N
STARLINK-1234 3.2 22:26:00 10° WNW 22:29:16 66° NNE 22:30:16 39° E
Cosmos 1503 Rocket 4.1 22:29:46 10° NNW 22:35:05 72° ENE 22:37:35 32° SE
STARLINK-1209 3.0 22:32:10 10° WNW 22:35:28 76° NNE 22:36:13 49° E
Meteor 2-8 Rocket 4.5 22:34:54 10° N 22:41:03 72° E 22:44:07 31° SSE
Cosmos 2263 4.1 22:39:18 22° SSW 22:43:04 88° ESE 22:48:43 10° NNE
Cosmos 1536 Rocket 3.5 22:45:44 43° SSE 22:47:02 71° E 22:51:23 10° NNE
Cosmos 1674 4.2 22:48:20 23° E 22:48:33 23° E 22:51:34 10° NE
Cosmos 1271 Rocket 2.8 22:49:29 42° SSW 22:50:41 74° WNW 22:54:37 10° N
Cosmos 1242 Rocket 3.3 22:49:25 30° SW 22:50:50 48° WNW 22:54:25 10° N
STARLINK-60 3.0 22:52:21 30° WSW 22:53:47 76° NNW 22:56:58 10° ENE
Cosmos 1544 Rocket 4.2 22:50:02 10° NNW 22:54:13 47° W 22:55:47 32° SW
Cosmos 1354 Rocket 4.0 22:49:06 10° NNW 22:54:26 90° WSW 22:56:35 38° SSE
COSMOS 2455 3.0 22:52:50 33° S 22:55:14 53° ESE 23:01:04 10° NE
Spot 4 3.8 22:53:29 39° SSE 22:55:18 89° ENE 23:00:12 10° NNW
Cosmos 1833 4.2 22:53:15 10° NNW 22:58:53 71° WSW 23:01:10 36° S
STARLINK-1205 4.5 22:55:30 10° WNW 22:59:33 50° NNE 23:03:06 13° E
USA 215 3.6 22:53:13 10° ESE 22:59:43 67° NNE 23:06:12 10° NW
Cosmos 1707 2.8 22:59:44 46° SSW 23:00:45 72° W 23:04:39 10° N
Cosmos 2297 Rocket 4.3 22:56:57 10° N 23:01:12 21° NE 23:05:27 10° E
SL-27 R/B 4.3 22:59:43 10° NW 23:02:27 21° W 23:03:01 20° WSW
Helios 1A 4.3 23:01:35 24° ESE 23:03:05 30° ENE 23:06:46 10° N
STARLINK-1218 4.4 23:00:30 10° WNW 23:04:34 52° NNE 23:07:54 14° E
Cosmos 1174 3.5 23:06:36 56° E 23:06:36 56° E 23:09:57 10° NE
Cosmos 1726 2.0 23:03:04 10° N 23:06:49 88° ENE 23:07:20 65° SSE
ALOS 2 2.8 23:07:47 42° SE 23:09:05 62° ENE 23:13:26 10° N
STARLINK-1254 4.3 23:05:28 10° WNW 23:09:33 54° NNE 23:12:41 16° E
COSMOS 2487 2.2 23:06:51 10° NNW 23:10:20 86° ENE 23:10:32 78° SE
CENTAUR R/B 3.4 23:05:54 10° NW 23:13:49 58° WSW 23:18:17 30° S
STARLINK-1231 4.2 23:10:26 10° WNW 23:14:32 57° NNE 23:17:26 18° E
Meteor 1-16 Rocket 4.1 23:10:15 10° NNW 23:15:47 90° NE 23:17:49 40° S
Meteor 2-5 Rocket 4.5 23:14:12 30° SE 23:16:01 38° E 23:21:10 10° NNE
Cosmos 1867 3.7 23:11:35 10° NW 23:16:59 62° WSW 23:18:45 41° S
ATLAS 3B R/B 2.7 23:10:22 10° NW 23:17:13 88° ENE 23:21:09 29° SE
EO 1 Del DPAF 3.9 23:14:40 10° N 23:18:19 47° WNW 23:19:30 34° WSW
FALCON 9 DEB 4.3 23:20:08 32° E 23:20:08 32° E 23:22:13 10° ENE
Cosmos 1992 Rocket 4.4 23:16:14 24° SW 23:19:15 60° WNW 23:24:26 10° NNE
STARLINK-1232 4.1 23:15:26 10° WNW 23:19:33 59° NNE 23:22:15 20° E
Cosmos 1606 Rocket 3.9 23:16:17 10° N 23:20:33 55° ENE 23:21:36 43° SE
Cosmos 1943 Rocket 3.9 23:16:14 10° WSW 23:21:05 30° NW 23:25:59 10° NNE
SeaSat 1 2.5 23:16:54 10° NNE 23:21:52 77° WNW 23:24:20 30° SW
Cosmos 2098 Rocket 4.4 23:20:07 33° SSE 23:23:36 68° E 23:31:02 10° NNE
STARLINK-29 3.1 23:24:02 66° NE 23:24:02 66° NE 23:26:53 10° ENE
STARLINK-1212 4.0 23:20:51 10° WNW 23:22:54 36° W 23:22:54 36° W
STARLINK-1105 4.0 23:21:19 10° WNW 23:23:20 35° W 23:23:20 35° W
STARLINK-1208 4.0 23:20:23 10° WNW 23:24:31 63° NNE 23:27:00 22° E
NOSS 5 (C) 4.4 23:21:58 10° NW 23:25:10 82° NE 23:25:33 68° ESE
STARLINK-1247 4.0 23:22:12 10° WNW 23:24:13 35° W 23:24:13 35° W
STARLINK-1227 4.1 23:22:41 10° WNW 23:24:39 34° W 23:24:39 34° W
STARLINK-1226 4.1 23:23:33 10° WNW 23:25:31 33° W 23:25:31 33° W
ATLAS CENTAUR R/B 3.5 23:25:37 10° NNW 23:27:16 18° NNE 23:29:37 10° E
STARLINK-1215 4.1 23:24:27 10° WNW 23:26:23 33° W 23:26:23 33° W
NOSS 3-4 (A) 3.5 23:23:52 16° SW 23:28:43 75° NW 23:35:09 10° NE
NOSS 3-4 (C) 3.5 23:24:01 17° SW 23:28:49 75° NW 23:35:15 10° NE
STARLINK-1217 4.2 23:26:16 10° WNW 23:28:08 31° W 23:28:08 31° W
STARLINK-1271 3.9 23:25:24 10° WNW 23:29:32 66° NNE 23:31:48 25° E
RESURS DK-1 2.7 23:29:48 46° ESE 23:29:57 47° ESE 23:33:57 10° NE
STARLINK-1229 4.3 23:27:11 10° WNW 23:29:01 30° W 23:29:01 30° W
STARLINK-1270 4.3 23:28:05 10° WNW 23:29:53 29° W 23:29:53 29° W
STARLINK-1189 4.4 23:29:53 10° WNW 23:31:36 28° W 23:31:36 28° W
Cosmos 2084 3.8 23:33:36 45° SE 23:33:47 46° ESE 23:38:03 10° NE
STARLINK-1188 4.5 23:30:48 10° WNW 23:32:29 27° W 23:32:29 27° W
Cosmos 2315 Rocket 3.9 23:28:05 10° N 23:34:20 88° E 23:36:59 37° S
STARLINK-1154 3.8 23:30:22 10° WNW 23:34:31 70° NNE 23:36:35 28° ESE
BREEZE-M R/B 4.1 23:31:45 29° SSW 23:34:45 43° SSE 23:38:52 10° E
Cosmos 1626 3.3 23:36:00 29° E 23:36:09 29° E 23:39:25 10° NNE
Cosmos 1340 Rocket 3.4 23:33:34 10° NNW 23:37:28 45° W 23:38:06 41° WSW
Cosmos 2369 Rocket 3.8 23:32:32 10° WSW 23:37:30 31° NW 23:42:31 10° NNE
ATLAS CENTAUR R/B 1.7 23:35:43 32° WSW 23:37:35 63° NW 23:41:41 10° NNE
Cosmos 2227 Rocket 3.7 23:33:27 10° NNW 23:38:29 31° NE 23:43:28 10° ESE
Okean 1-7 Rocket 4.3 23:37:39 36° ESE 23:38:33 40° E 23:42:47 10° NNE
STARLINK-1197 3.7 23:35:20 10° WNW 23:39:29 74° NNE 23:41:21 31° ESE
Cosmos 1908 3.0 23:38:17 10° NNW 23:42:07 79° W 23:42:29 70° SSW
STARLINK-1198 3.6 23:40:18 10° WNW 23:44:28 78° NNE 23:46:07 35° ESE
Aureole 3 3.5 23:41:46 10° NNW 23:44:31 41° WNW 23:44:31 41° WNW
Cosmos 1953 3.5 23:42:13 10° NNW 23:45:43 30° W 23:46:23 28° WSW
SL-4 R/B 3.6 23:50:08 13° NW 23:50:08 13° NW 23:50:32 10° NW
STARLINK-1199 3.6 23:45:18 10° WNW 23:49:28 83° NNE 23:50:55 39° ESE
Landsat 4 3.7 23:47:09 10° NNE 23:50:49 59° ESE 23:51:00 58° ESE
KORONAS-FOTON 3.8 23:52:25 59° SW 23:52:54 67° W 23:56:45 10° N
STARLINK-1210 3.5 23:50:16 10° WNW 23:54:26 88° NNE 23:55:42 44° ESE
